Location: ???????
(54.6339°N, 39.4245°E)
Time: 13:16:44
(UTC+00:00)

Cosmos 2219 Rocket - Pass Details

Date: 19 May 2025
Orbit: 828 x 844 km, 71.0° (Epoch: 20 June)

Event Time Altitude Azimuth Distance (km) Brightness Sun altitude
Rises 22:21:35 0° 323° (NW) 3,400 5.9 -14.2°
Reaches altitude 10° 22:24:12 10° 316° (NW) 2,458 5.0 -14.1°
Maximum altitude 22:29:16 36° 251° (WSW) 1,301 2.9 -13.9°
Enters shadow 22:32:26 20° 199° (SSW) 1,834 3.3 -13.7°
